Погода в Буденновске

Погода в Буденновске : погода сейчас, прогноз погоды и архив. Всё, что Вы хотите узнать о погоде в Буденновске!

Хотите узнать прогноз погоды в Буденновске? Тогда Вам сюда: Погода в Буденновске

Поиск расширенной информации на нашем сайте:

Другие новости

Новости СМИ2

Главная страница сайта

Новости сайта

03.07.2017

Напоминаем, что на нашем специализированном сайте Метеоцентр.Азия вы можете получить высокодетализированные автоматические прогнозы погоды по пунктам России, СНГ и мира в авиационном формате (включающие направление и скорость ветра, видимость, явления погоды, количество и форму облачности, нижнюю и верхнюю границу облачности).


Погода в Буденновске - сегодня

Время (UTC), дата Ветер
(°,м/с) 
Видим.   Явления Облачность Т
(°С)
Тd
(°С)
f(%) Тe
(°С)
Pmin
(гПа)
dP
(гПа)
Po
(мм)
O2
(г/м3)
Тmin Tmax R s Состояние
почвы
06 17.06.18 060 (СВ) 4{11}  10 км    8/0 средняя, верхняя 
[Ac trans|Ci fib]
+25.5 +9.3 36 +26  1009.4  0.4  746  273           
09 17.06.18 080 (В) 10 км    9/9 600 м верхняя 
[Sc|Ci fib]
+27.6 +9.6 32 +28  1008.9  -0.3  745  271           
12 17.06.18 090 (В) 10 км    10/10 600 м 
[Sc]
+28.8 +4.8 22 +29  1007.9  -1  745  271           
15 17.06.18 220 (ЮЗ) 10 км    9/9 600 м 
[Sc]
+24.6 +11.6 44 +28  1007.9  -0.2  744  273    +29.1       
18 17.06.18 190 (Ю) 20000 м    10/10 600 м 
[Sc]
+20.2 +14 68 +27  1010.7  2.5  746  277           
21 17.06.18 190 (Ю) 10 км    10/10 600 м 
[Sc]
+18.5 +15.3 82 +29  1010.5  -0.3  746  278           
00 18.06.18 тихо ()   10 км    10/10 600 м 
[Sc]
+17.9 +14.3 79 +26  1010.1  -0.4  746  279           
03 18.06.18 тихо ()   10 км    10/8 600 м верхняя 
[Sc|Cs]
+18.4 +13 71 +24  1010.2  0.2  746  279  +17.7        сухая 
06 18.06.18 080 (В) 10 км  {ливн. осадки}  10/10 600 м 
[Sc]
+22.4 +13.7 58 +29  1010.2  0.1  746  275           
09 18.06.18 120 (ЮВ) 10 км    10/10 600 м 
[Sc]
+25.3 +5.7 28 +25  1010.1  746  274           
12 18.06.18 070 (В) 4{10}  10 км  в посл. час ливневой дождь  10/6 600 м кучево-дожд., средняя 
[Cb calv|Ac As]
+23.6 +4.2 28 +24  1010.2  746  276           
15 18.06.18 060 (СВ) 10 км    10/10 600 м 
[Sc]
+24.8 +3.5 25 +25  1009.3  -0.8  745  275    +26  0.0     
18 18.06.18 тихо ()   20000 м    10/10 600 м 
[Sc]
+23 +5.6 32 +23  1010  0.6  746  276           
21 18.06.18 110 (В) 20000 м    9/8 600 м средняя 
[Sc|Ac trans]
+22.2 +3.6 30 +22  1010.1  0.1  746  277           
00 19.06.18 350 (С) 20000 м    3/0 верхняя 
[Ci fib]
+15.3 +5.7 53 +16  1011  0.5  746  284           
03 19.06.18 350 (С) 10 км    8/0 верхняя 
[Ci fib]
+16.5 +7.2 54 +18  1011.9  0.5  747  283  +13.4    0.0    сухая 
06 19.06.18 070 (В) 10 км    8/0 верхняя 
[Ci fib]
+26.8 +4.8 24 +27  1012.1  0.7  748  274           
09 19.06.18 120 (ЮВ) 10 км    9/1 600 м верхняя 
[Cu hum|Ci fib]
+29.7 +2.9 18 +30  1011.8  -0.2  747  271           
12 19.06.18 130 (ЮВ) 10 км    9/1 600 м верхняя 
[Cu hum|Ci fib]
+29.6 +2.8 18 +30  1011  -0.7  747  271           
15 19.06.18 140 (ЮВ) 10 км    3/0 верхняя 
[Ci fib]
+30.2 +1.2 16 +30  1010.7  -0.3  747  271    +31.5       
18 19.06.18 210 (ЮЗ) 20000 м    8/0 верхняя 
[Ci fib]
+22.5 +6.4 35 +23  1012.6  1.5  748  277           
21 19.06.18 150 (ЮВ) 20000 м    1/0 верхняя 
[Ci fib]
+17.6 +6.3 47 +19  1012.8  0.1  748  282           
00 20.06.18 тихо ()   20000 м    ясно 
+14.1 +7.6 65 +14  1013.3  0.3  748  285           
03 20.06.18 200 (Ю) 10 км    ясно 
+15.4 +7.9 61 +17  1014.4  1.2  749  284  +11        сухая 
06 20.06.18 220 (ЮЗ) 10 км    ясно 
+29.1 +4.7 21 +29  1013.5  -0.2  749  272           
Время (UTC), дата Ветер
(°,м/с) 
Видим.   Явления Облачность Т
(°С)
Тd
(°С)
f(%) Тe
(°С)
Pmin
(гПа)
dP
(гПа)
Po
(мм)
O2
(г/м3)
Тmin Tmax R s Состояние
почвы

Для получения пояснительной информации подведите курсор к названию столбца.

ПОГОДА в Буденновске - архив

Всё, что Вы хотите узнать о погоде в Буденновске - удобно и подробно!

Выберите нужную дату (начиная с 1 января 2015* года) и нажмите кнопку "Найти".
Будут отображены архивные сводки погоды по пункту Буденновск, начиная с указанной даты.


Отображать данные в формате CSV (для использования в таблицах Excel)


Внимание! Наш архив погоды предназначен исключительно для личного некоммерческого использования в познавательных целях. Если Вам необходимы официальные справки о состоянии погоды (для производственных, юридических, коммерческих и т.п. целей), обращайтесь в органы Росгидромета.

*Примечание: данная дата относится к архиву по метеостанциям СССР (Россия, СНГ, Балтия).
Архив по метеостанциям Зарубежной Европы и Азии (кроме Китая) хранится 10 дней, по другим регионам земного шара (Китай, Африка, Америка, Австралия, Океания) - 1 день.

Буденновск - район местоположения метеостанции


Название, широта, долгота, высота метеостанции:
Буденновск (Прикумск) 44.8°ш. 44.1°д. 136 м над ур. моря [Российская Федерация]

Дополнительная информация

В oтличие oт бoльшинства пoгoдных сайтoв мы публикуем пoдрoбную метеoинфoрмацию в детальнoм прoфессиoнальнoм фoрмате.

Характеристики температуры и влажнoсти вoздуха измеряются на высoте 2 м в тени вдали oт зданий и деревьев.
Скoрoсть ветра измеряется на высoте 10 м (на урoвне рoста челoвека скoрoсть ветра ниже в 1.5-2 раза). Если метеoстанция нахoдится в гoрoде или в лесу, тo скoрoсть ветра занижена на 2-4 м/с пo сравнению с oткрытым местoм. Скoрoсть ветра над акватoриями крупных рек и oзёр, а также на вершинах хoлмoв на 2-5 м/с выше, чем в oбычных услoвиях.
Атмoсфернoе давление в разных тoчках местнoсти мoжет значительнo oтличаться oт давления на метеoстанции, в зависимoсти oт услoвий рельефа (при пoдъёме на 10 м давление пoнижается примернo на 1 мм рт.ст.).